TimeEET,TemperatureF,Dew PointF,Humidity,Sea Level PressureIn,VisibilityMPH,Wind Direction,Wind SpeedMPH,Gust SpeedMPH,PrecipitationIn,Events,Conditions,WindDirDegrees,DateUTC
12:20 AM,17.6,15.8,93,30.06,-9999.0,WSW,2.3,-,N/A,,Clear,240,2013-11-22 22:20:00
12:50 AM,15.8,15.8,100,30.06,-9999.0,SE,2.3,-,N/A,,Clear,130,2013-11-22 22:50:00
1:20 AM,15.8,14.0,93,30.06,-9999.0,Calm,Calm,-,N/A,,Clear,0,2013-11-22 23:20:00
1:50 AM,17.6,15.8,93,30.06,-9999.0,Calm,Calm,-,N/A,,Clear,0,2013-11-22 23:50:00
2:00 AM,17,17,100,,12,Calm,Calm,,,,,,2013-11-23 00:00:00
2:20 AM,15.8,14.0,93,30.06,-9999.0,Variable,2.3,-,N/A,,Clear,0,2013-11-23 00:20:00
2:50 AM,15.8,15.8,100,30.06,-9999.0,Calm,Calm,-,N/A,,Clear,0,2013-11-23 00:50:00
3:20 AM,15.8,14.0,93,30.06,-9999.0,Calm,Calm,-,N/A,,Clear,0,2013-11-23 01:20:00
3:50 AM,14.0,12.2,93,30.06,-9999.0,Calm,Calm,-,N/A,,Clear,0,2013-11-23 01:50:00
4:20 AM,15.8,14.0,93,30.06,-9999.0,Calm,Calm,-,N/A,,Clear,0,2013-11-23 02:20:00
4:50 AM,14.0,12.2,93,30.06,-9999.0,WNW,2.3,-,N/A,,Clear,290,2013-11-23 02:50:00
5:00 AM,14,14,99,,12,WNW,2.3,,,,,290,2013-11-23 03:00:00
5:20 AM,15.8,14.0,93,30.09,-9999.0,SW,3.5,-,N/A,,Clear,230,2013-11-23 03:20:00
5:50 AM,12.2,10.4,92,30.09,-9999.0,Calm,Calm,-,N/A,,Clear,0,2013-11-23 03:50:00
6:20 AM,14.0,12.2,93,30.09,4.3,Calm,Calm,-,N/A,,Unknown,0,2013-11-23 04:20:00
6:50 AM,15.8,15.8,100,30.09,3.7,Calm,Calm,-,N/A,,Unknown,0,2013-11-23 04:50:00
7:20 AM,19.4,15.8,86,30.09,3.7,NE,2.3,-,N/A,,Unknown,40,2013-11-23 05:20:00
7:50 AM,24.8,21.2,86,30.09,4.3,Calm,Calm,-,N/A,,Unknown,0,2013-11-23 05:50:00
8:00 AM,25,20,75,,4,Calm,Calm,,,,Mist,,2013-11-23 06:00:00
8:20 AM,26.6,23.0,86,30.09,4.3,Variable,1.2,-,N/A,,Unknown,0,2013-11-23 06:20:00
8:50 AM,30.2,24.8,80,30.09,4.3,West,2.3,-,N/A,,Unknown,280,2013-11-23 06:50:00
9:20 AM,33.8,24.8,70,30.09,4.3,Variable,2.3,-,N/A,,Unknown,0,2013-11-23 07:20:00
9:50 AM,37.4,24.8,60,30.09,4.3,Variable,1.2,-,N/A,,Unknown,0,2013-11-23 07:50:00
10:20 AM,41.0,24.8,53,30.09,4.3,Variable,1.2,-,N/A,,Unknown,0,2013-11-23 08:20:00
10:50 AM,44.6,26.6,49,30.06,4.3,Variable,1.2,-,N/A,,Unknown,0,2013-11-23 08:50:00
11:00 AM,44,25,33,,4,North,1.2,,,,Haze,350,2013-11-23 09:00:00
11:20 AM,46.4,24.8,43,30.06,4.3,Variable,2.3,-,N/A,,Unknown,0,2013-11-23 09:20:00
11:50 AM,46.4,24.8,43,30.04,4.3,West,5.8,-,N/A,,Unknown,280,2013-11-23 09:50:00
12:20 PM,48.2,23.0,37,30.04,-9999.0,West,8.1,-,N/A,,Clear,280,2013-11-23 10:20:00
12:50 PM,50.0,23.0,35,30.04,-9999.0,WNW,5.8,-,N/A,,Clear,290,2013-11-23 10:50:00
1:20 PM,50.0,17.6,28,30.04,-9999.0,West,9.2,-,N/A,,Clear,270,2013-11-23 11:20:00
1:50 PM,50.0,19.4,30,30.04,-9999.0,West,11.5,-,N/A,,Clear,270,2013-11-23 11:50:00
2:00 PM,51,19,16,,12,West,11.5,,,,,270,2013-11-23 12:00:00
2:20 PM,50.0,17.6,28,30.04,-9999.0,West,11.5,-,N/A,,Clear,260,2013-11-23 12:20:00
2:50 PM,50.0,19.4,30,30.04,-9999.0,West,10.4,-,N/A,,Clear,270,2013-11-23 12:50:00
3:20 PM,46.4,19.4,34,30.04,-9999.0,West,10.4,-,N/A,,Clear,260,2013-11-23 13:20:00
3:50 PM,44.6,17.6,34,30.04,-9999.0,WSW,6.9,-,N/A,,Clear,240,2013-11-23 13:50:00
4:20 PM,39.2,17.6,42,30.04,-9999.0,WSW,3.5,-,N/A,,Clear,250,2013-11-23 14:20:00
4:50 PM,39.2,15.8,39,30.04,-9999.0,Variable,2.3,-,N/A,,Clear,0,2013-11-23 14:50:00
5:00 PM,39,15,23,,12,SSW,2.3,,,,,210,2013-11-23 15:00:00
5:20 PM,37.4,15.8,41,30.06,-9999.0,SSW,3.5,-,N/A,,Clear,200,2013-11-23 15:20:00
5:50 PM,35.6,15.8,44,30.06,-9999.0,West,3.5,-,N/A,,Clear,270,2013-11-23 15:50:00
6:20 PM,35.6,17.6,48,30.06,-9999.0,Variable,2.3,-,N/A,,Clear,0,2013-11-23 16:20:00
6:50 PM,30.2,19.4,64,30.06,-9999.0,SSW,2.3,-,N/A,,Clear,210,2013-11-23 16:50:00
7:20 PM,28.4,17.6,64,30.06,-9999.0,Variable,2.3,-,N/A,,Clear,0,2013-11-23 17:20:00
7:50 PM,24.8,15.8,69,30.06,-9999.0,Variable,1.2,-,N/A,,Clear,0,2013-11-23 17:50:00
8:00 PM,26,17,56,,12,NNW,1.2,,,,,340,2013-11-23 18:00:00
8:20 PM,24.8,15.8,69,30.06,-9999.0,East,2.3,-,N/A,,Clear,90,2013-11-23 18:20:00
8:50 PM,21.2,14.0,74,30.06,-9999.0,Variable,2.3,-,N/A,,Clear,0,2013-11-23 18:50:00
9:20 PM,21.2,15.8,80,30.06,-9999.0,Calm,Calm,-,N/A,,Clear,0,2013-11-23 19:20:00
9:50 PM,21.2,15.8,80,30.09,-9999.0,Calm,Calm,-,N/A,,Clear,0,2013-11-23 19:50:00
10:20 PM,21.2,15.8,80,30.06,-9999.0,Calm,Calm,-,N/A,,Clear,0,2013-11-23 20:20:00
10:50 PM,19.4,14.0,80,30.09,-9999.0,Variable,1.2,-,N/A,,Clear,0,2013-11-23 20:50:00
11:00 PM,18,15,80,,12,WNW,1.2,,,,,290,2013-11-23 21:00:00
11:20 PM,19.4,14.0,80,30.09,-9999.0,Variable,1.2,-,N/A,,Clear,0,2013-11-23 21:20:00
11:50 PM,19.4,14.0,80,30.06,-9999.0,WSW,2.3,-,N/A,,Clear,250,2013-11-23 21:50:00